SKYNET 5A

Last updated on Jan. 16, 2021, 6:28 a.m. UTC

1 30794U 07007B   21015.92080351 -.00000278  00000-0  00000-0 0  9992
2 30794   1.0728  91.1842 0003470 204.5236 246.5390  1.00271553 50866
UTC
Height (km)
Latitude
Longitude
Inclination
Orbital Period
UTC large
Height (km)
Speed (km/s)
/
Latitude / Longitude
Inclination (degrees)
Orbital Period (minutes)
Azimuth
Elevation
Range (km)
Doppler Factor
iOS Compass Heading
iOS Angle

Next 30 passes for location: Hong Kong

Rise time Rise Azimuth (degrees) Set time Set Azimuth (degrees) Duration Max altitude (degrees)

No matching passes for this satellites